This demonstration page uses our WeatherBlox Daily Observations layout. Learn more.

Left ArrowRight Arrow

39.12711, -84.51439

Hourly Observations for August 2, 2018

Temp ( °F °C ) Dew Point ( °F °C ) Humidity (%) Winds ( mph kmh ) Pressure ( in mb ) Visibility ( mi km ) Precip ( " mm )
12:53 am 00:53 Clear with Mist and Fog 69 20.6 69 20.6 100 100 N N/A 30.03 1017 4 6 N/A
1:45 am 01:45 Mostly Cloudy with Mist and Fog 69 20.6 69 20.6 100 100 N N/A 30.03 1017 5 8 N/A
1:53 am 01:53 Mostly Cloudy with Mist and Fog 69 20.6 69 20.6 100 100 N N/A 30.03 1017 4 6 N/A
2:09 am 02:09 Cloudy with Mist and Fog 69 20.6 69 20.6 100 100 N N/A 30.03 1017 6 10 N/A
2:26 am 02:26 Cloudy with Mist and Fog 69 20.6 69 20.6 100 100 N N/A 30.03 1017 2 2 N/A
2:33 am 02:33 Cloudy with Mist and Fog 68 20 68 20 100 100 N N/A 30.03 1017 1 1 N/A
2:39 am 02:39 Cloudy with Mist and Fog 69 20.6 69 20.6 100 100 N N/A 30.03 1017 3 4 N/A
2:53 am 02:53 Cloudy with Mist and Fog 68 20 68 20 100 100 ESE 3 6 30.04 1017 3 5 N/A
3:53 am 03:53 Mostly Cloudy with Mist and Fog 69 20.6 69 20.6 100 100 SE 3 6 30.02 1017 6 10 N/A
4:53 am 04:53 Cloudy 69 20.6 69 20.6 100 100 N N/A 30.04 1017 7 11 N/A
5:53 am 05:53 Cloudy with Mist and Fog 69 20.6 69 20.6 100 100 SSE 3 6 30.04 1017 5 8 N/A
6:53 am 06:53 Cloudy with Mist and Fog 69 20.6 69 20.6 100 100 N N/A 30.05 1018 2 3 N/A
7:53 am 07:53 Cloudy with Mist and Fog 70 21.1 70 21.1 100 100 SSE 3 6 30.06 1018 2 3 N/A
8:08 am 08:08 Cloudy with Mist and Fog 70 21.1 70 21.1 100 100 SE 3 6 30.06 1018 2 3 N/A
8:53 am 08:53 Cloudy with Mist and Fog 70 21.1 69 20.6 97 97 N N/A 30.07 1018 2 3 N/A
9:53 am 09:53 Mostly Cloudy with Mist and Fog 71 21.7 69 20.6 94 94 N N/A 30.08 1019 5 8 N/A
10:35 am 10:35 Partly Cloudy 74 23.3 70 21.1 88 88 N N/A 30.06 1018 7 11 N/A
10:53 am 10:53 Partly Cloudy 74 23.3 70 21.1 88 88 N N/A 30.08 1019 7 11 N/A
11:53 am 11:53 Partly Cloudy 77 25 70 21.1 79 79 N N/A 30.08 1019 8 13 N/A
12:53 pm 12:53 Partly Cloudy 79 26.1 68 20 69 69 N N/A 30.07 1018 10 16 N/A
1:53 pm 13:53 Partly Cloudy 78 25.6 70 21.1 76 76 S 7 11 30.06 1018 10 16 N/A
2:53 pm 14:53 Partly Cloudy 79 26.1 68 20 69 69 SSW 3 6 30.06 1018 10 16 N/A
3:53 pm 15:53 Mostly Sunny 79 26.1 69 20.6 72 72 VRB 5 7 30.05 1018 10 16 N/A
4:53 pm 16:53 Sunny 79 26.1 68 20 69 69 S 6 9 30.04 1017 10 16 N/A
5:53 pm 17:53 Sunny 79 26.1 68 20 69 69 SSE 6 9 30.03 1017 10 16 N/A
6:53 pm 18:53 Sunny 79 26.1 66 18.9 65 65 S 6 9 30.02 1017 10 16 N/A
7:53 pm 19:53 Sunny 77 25 64 17.8 64 64 S 6 9 30.02 1017 10 16 N/A
8:53 pm 20:53 Clear 74 23.3 68 20 82 82 N N/A 30.03 1017 10 16 N/A
9:53 pm 21:53 Clear 72 22.2 69 20.6 91 91 N N/A 30.06 1018 10 16 N/A
10:53 pm 22:53 Clear 70 21.1 68 20 93 93 N N/A 30.07 1018 8 13 N/A
11:53 pm 23:53 Clear with Mist and Fog 68 20 68 20 100 100 N N/A 30.07 1018 6 10 N/A

Powered by AerisWeather